Погода в Даете

Филиппины     14°06′16″N   122°57′03″E
темп.,
°C
ветер,
м/с
пор.,
м/с
влажн.,
%
обл.,
%
осадки,
мм/ч
давл.,
гПа
погр.,
м
25 октября, пн
пн2523:00+25ссв3591100 0.3 1012382
02:00+25всв239191 3.6 1010146
05:00+25св2490100 1.6 1009298
08:00+26св2489100 7.4 1011221
11:00+26ссв248997 3.0 1011290
14:00+25с3592100 6.9 1009382
17:00+25св3693100 4.6 1010397
20:00+24св589496 7.4 1012586
26 октября, вт
вт2623:00+24всв488895 0.6 1012544
02:00+24всв378317 0.6 1010440
05:00+24св248297 0.0 1011396
08:00+27ссв357870 0.1 1012867
11:00+27ссв3578100 1.1 1012794
14:00+27ссв357771 2.4 1010747
17:00+26ссв3585100 0.8 1010368
20:00+25ссв369069 1.3 1012383
27 октября, ср
ср2723:00+25ссв359189 2.3 1012310
02:00+25с3489100 3.6 1011378
05:00+25св358973 0.3 1011400
08:00+26ссв468847 1.9 1013625
11:00+27св358872 2.1 1012731
14:00+26ссв468970 5.2 1011682
17:00+25св468970 3.3 1011469
20:00+25ссв369069 7.6 1012421
28 октября, чт
чт2823:00+25ссв479185 6.8 1012440
02:00+25св489166 12.6 1011555
05:00+25св489179 4.5 1012563
08:00+26св488976 8.2 1014683
11:00+26св478982 3.0 1013840
14:00+26св478775 5.7 1011850
17:00+25св588841 2.4 1012522
20:00+25св488853 5.3 1014542
29 октября, пт
пт2923:00+25св488780 2.6 1013573
02:00+25св478732 3.6 1012461
05:00+25св489059 2.4 1013594
08:00+25св588963 5.3 1015697
11:00+26св478852 2.6 1014837
14:00+26св478752 4.8 1012808
17:00+26св478742 2.4 1012530
20:00+25св588947 4.0 1014548